Regional Weather Roundup
Issued by NWS Upton, NY

Current Version | Previous Version | Text Only | Print | Product List | Glossary On
Versions: 1 2 3 4 5 6 7 8 9 10 11 12 13 14 15 16 17 18 19 20 21 22 23 24 25 26 27 28 29 30 31 32 33 34 35 36 37 38 39 40 41 42 43 44 45 46 47 48 49
599
ASUS41 KOKX 250209
RWROKX

REGIONAL WEATHER ROUNDUP
NATIONAL WEATHER SERVICE NEW YORK NY
1000 PM EDT MON APR 24 2017

NOTE: "FAIR" INDICATES FEW OR NO CLOUDS BELOW 12,000 FEET WITH NO
SIGNIFICANT WEATHER AND/OR OBSTRUCTIONS TO VISIBILITY.

NYZ071-072-176-178-NJZ106-104-250300-
NEW YORK CITY METRO AREA

CITY           SKY/WX    TMP DP  RH WIND       PRES   REMARKS
Central Park   CLOUDY    54  42  64 VRB3      30.16R
Wall St Helipt CLOUDY    55  39  54 NE12      30.14R
Bronx Bot Gard   N/A     52  43  71 NE3       30.13F
LaGuardia APRT CLOUDY    53  46  77 NE9       30.14R
Kennedy INTL   CLOUDY    54  44  69 E8        30.14S
Breezy Point     N/A     50 N/A N/A E12G17      N/A
Newark/Liberty CLOUDY    57  37  47 E7        30.13R
Teterboro      CLOUDY    55  44  66 NE5       30.13R
$$

NYZ177-179-078>081-250300-
LONG ISLAND NEW YORK

CITY           SKY/WX    TMP DP  RH WIND       PRES   REMARKS
Jones Beach      N/A     52 N/A N/A E15         N/A
Matinecock PT    N/A     50 N/A N/A E14         N/A
Farmingdale    CLOUDY    53  43  68 E7        30.14S
MacArthur/ISP  CLOUDY    51  46  83 E8        30.14S
Shirley        CLOUDY    50  47  89 CALM      30.16S
Mt Sinai Harb    N/A    N/A N/A N/A E6G12       N/A
Westhampton    CLOUDY    50  45  83 E7        30.17F
East Hampton   CLOUDY    49  45  86 E6        30.17S
Montauk        NOT AVBL
$$

NYZ052-065-067-250300-
HUDSON VALLEY

CITY           SKY/WX    TMP DP  RH WIND       PRES   REMARKS
White Plains   CLOUDY    52  43  71 E6        30.13S
Larchmont Harb   N/A     48 N/A N/A NE15        N/A
Croton O-T Hud   N/A     55 N/A N/A E3          N/A
Newburgh       MOCLDY    59  39  47 E9        30.14F
Montgomery     CLOUDY    59  36  42 SE3       30.12S
Poughkeepsie   CLOUDY    59  35  40 SE8       30.12S
Albany         CLOUDY    54  34  46 N9        30.16R
$$

NJZ001-105-106-008-010-013-015-019>022-104-250300-
NEW JERSEY

CITY           SKY/WX    TMP DP  RH WIND       PRES   REMARKS
Newark/Liberty CLOUDY    57  37  47 E7        30.13R
Teterboro      CLOUDY    55  44  66 NE5       30.13R
Caldwell       CLOUDY    55  43  63 NE6       30.13S
Somerville     CLOUDY    54  41  61 CALM      30.10S
Linden         CLOUDY    55  39  53 CALM      30.13S
Sussex         CLOUDY    57  37  47 NE7       30.13R
Andover          N/A     57  37  47 CALM      30.12R
Trenton        CLOUDY    54  39  57 E8        30.10S
Millville      CLOUDY    51  50  96 E12       30.05S
Atlantic City  CLOUDY    52  47  83 E15       30.06F
Wrightstown    LGT RAIN  51  46  82 E12       30.07S
Toms River     LGT RAIN  50  47  89 E7        30.11S
Belmar         CLOUDY    50  46  86 E7        30.13R
$$

PAZ047>061-062-071-250300-
EASTERN PENNSYLVANIA

CITY           SKY/WX    TMP DP  RH WIND       PRES   REMARKS
Philadelphia   CLOUDY    55  39  54 E14G24    30.08S
Allentown      CLOUDY    55  44  66 E7        30.10S
Scranton       LGT RAIN  58  37  45 NE5       30.09S
$$

CTZ002-004>006-009-010-012-RIZ004-006-007-MAZ004-011-015-250300-
SOUTHERN NEW ENGLAND
 IN CT

CITY           SKY/WX    TMP DP  RH WIND       PRES   REMARKS
Bradley INTL   CLOUDY    57  34  41 S8        30.17R
Hartford       CLOUDY    53  40  61 S5        30.18R
Danbury        CLOUDY    51  42  71 E7        30.16S
Wtrbury/Oxford CLOUDY    52  37  58 E5        30.17F
Bridgeport     CLOUDY    52  45  77 E9        30.16S
Meriden        CLOUDY    53  41  63 CALM      30.17S
New Haven      CLOUDY    50  43  77 E6        30.16F
Chester        LGT RAIN  50  41  71 E5        30.17S
Groton         LGT RAIN  50  44  80 E6        30.18S
Wilimantic     CLOUDY    54  42  64 CALM      30.19S

 IN RI

CITY           SKY/WX    TMP DP  RH WIND       PRES   REMARKS
Providence     CLOUDY    50  46  86 CALM      30.20F
Block Island   LGT RAIN  47  46  97 E8        30.18F
Westerly       CLOUDY    50  47  89 E7        30.19F
 IN MA

CITY           SKY/WX    TMP DP  RH WIND       PRES   REMARKS
Boston         MOCLDY    54  41  61 S6        30.19R
Worcester      CLOUDY    56  35  45 S6        30.18S
Westfield      CLOUDY    58  40  51 S3        30.16R
Provincetown   CLOUDY    48  44  86 S7        30.22S
Nantucket      CLOUDY    48  44  86 E8        30.20S
$$

ANZ330-335-338-340-345-350-353-355-250300-
COASTAL MARINE OBSERVATIONS


STATION/POSITION TIME  SKY/WX   TEMP    WIND        PRES    VSBY  WAVE
                                AIR SEA DIR/SP/G                  HT/PER
                 (UTC)          (F)     (DEG/KT/KT) (MB)    (MI)  (FT/S)
NY HARB ENTRANCE 0050            49 50   70/ 16/ 17 1019.6          3/ 9
20 S FIRE ISLAND 0150            49 47   90/ 14/ 17 1019.5          4/ 8
GREAT SOUTH BAY  0130            51 56   80/ 16/ 17   N/A
23 SSW MONTAUK P 0150            47 46              1021.2          3/10
15 E BARNEGAT LI 0130               50                N/A           5/ 5
HUDSON CANYON    0050            49 47   70/ 14/ 17 1018.8          4/10
KINGS POINT      0130            51 47   70/  4/  5 1020.3
EXECUTION ROCKS  NOT AVBL
CENTRAL LI SOUND 0100            46      70/ 12/ 12   N/A           0
EASTERN LI SOUND NOT AVBL
ROBBINS REEF     0130            55      90/ 11/ 12 1020.4
$$


>>>>>>>>>>>>>>>>>>>>>>>>>>>> KEY <<<<<<<<<<<<<<<<<<<<<<<<<<<
>                                                          <
>     SKY/WX - Sky Condition/Present Weather               <
>     TMP    - Temperature in Fahrenheit                   <
>     DP     - Dew Point in Fahrenheit                     <
>     RH     - Relative Humidity in Percent                <
>     WIND   - Direction (from) and Speed in MPH           <
>     PRES   - Mean Sea Level Pressure (inches of Hg)      <
>     WCI    - Wind Chill Index                            <
>     VSB    - VISIBILITY IN MILES                         <
>     HX     - HEAT INDEX                                  <
>     TC     - TEMPERATURE IN CELSIUS                      <
>     VRB    - VARIABLE WIND DIRECTION                     <
>                                                          <
>>>>>>>>>>>>>>>>>>>>>>>>>>>> KEY <<<<<<<<<<<<<<<<<<<<<<<<<<<




USA.gov is the U.S. government's official web portal to all federal, state and local government web resources and services.